^^
Station Historical Data
 
Daily Summary for November 17, 2018 Units:  English    Metric   Both
« Previous Day
Next Day »
Daily Weekly Monthly Yearly Custom
  Current: High: Low: Average:
Temperature: 69.8 °F TemperatureF °F 69.3 °F 67.8 °F
Dew Point: 37.8 °F DewpointF °F 36.7 °F 36.4 °F
Humidity: 31% Humidity% 29% 30%
Wind Speed: 0.0mph WindSpeedMPHmph 0.0mph 0.2mph
Wind Gust: 0.0mph WindSpeedGustMPHmph - -
WindCalm - - East
Pressure: 29.76 in PressureIn in 29.76 in -
Precipitation: 0.00 in      
Historical Graphs
 
 
Tabular Data for November 17, 2018
Time Temperature Dew Point Pressure Wind Wind Speed Wind Gust Humidity Rainfall Rate (Hourly) solar Conditions
TemperatureF °F DewpointF °F PressureIn in Calm     Humidity% HourlyPrecipIn in SolarRadiationWatts/m^2 W/m2 Conditions
00:04 71.1 °F 37.2 °F 29.81 in Calm     29% 0.00 in 0.00 W/m2
00:09 70.9 °F 37.0 °F 29.80 in Calm     29% 0.00 in 0.00 W/m2
00:14 70.5 °F 36.7 °F 29.80 in Calm   2.0 mph 29% 0.00 in 0.00 W/m2
00:19 70.3 °F 37.4 °F 29.80 in Calm   2.0 mph 30% 0.00 in 0.00 W/m2
00:23 70.2 °F 38.1 °F 29.80 in Calm   3.0 mph 31% 0.00 in 0.00 W/m2
00:29 70.0 °F 37.9 °F 29.80 in Calm   1.0 mph 31% 0.00 in 0.00 W/m2
00:34 69.6 °F 37.6 °F 29.79 in Calm   1.0 mph 31% 0.00 in 0.00 W/m2
00:38 69.6 °F 37.6 °F 29.80 in Calm   1.0 mph 31% 0.00 in 0.00 W/m2
00:42 69.4 °F 37.4 °F 29.79 in Calm   2.0 mph 31% 0.00 in 0.00 W/m2
00:48 69.4 °F 37.4 °F 29.80 in Calm   1.0 mph 31% 0.00 in 0.00 W/m2
00:53 69.3 °F 37.4 °F 29.79 in Calm     31% 0.00 in 0.00 W/m2
00:59 69.3 °F 37.4 °F 29.79 in Calm   1.0 mph 31% 0.00 in 0.00 W/m2
01:04 69.3 °F 37.4 °F 29.79 in Calm   1.0 mph 31% 0.00 in 0.00 W/m2
01:09 69.3 °F 38.1 °F 29.79 in East 0.9 mph 1.0 mph 32% 0.00 in 0.00 W/m2
01:14 69.3 °F 38.1 °F 29.79 in Calm     32% 0.00 in 0.00 W/m2
01:19 69.4 °F 37.4 °F 29.79 in Calm   1.0 mph 31% 0.00 in 0.00 W/m2
01:24 69.4 °F 38.3 °F 29.79 in Calm   1.0 mph 32% 0.00 in 0.00 W/m2
01:29 69.4 °F 38.3 °F 29.78 in East 0.9 mph 3.0 mph 32% 0.00 in 0.00 W/m2
01:34 69.6 °F 38.5 °F 29.79 in Calm   3.0 mph 32% 0.00 in 0.00 W/m2
01:39 69.6 °F 36.9 °F 29.78 in Calm   2.0 mph 30% 0.00 in 0.00 W/m2
01:44 69.8 °F 37.8 °F 29.79 in Calm   1.0 mph 31% 0.00 in 0.00 W/m2
01:49 70.0 °F 37.9 °F 29.78 in East 0.9 mph 4.0 mph 31% 0.00 in 0.00 W/m2
01:54 70.0 °F 37.0 °F 29.78 in Calm   2.0 mph 30% 0.00 in 0.00 W/m2
01:59 70.0 °F 37.9 °F 29.78 in East 2.0 mph 2.0 mph 31% 0.00 in 0.00 W/m2
02:04 70.0 °F 37.9 °F 29.77 in East 0.9 mph 3.0 mph 31% 0.00 in 0.00 W/m2
02:09 70.2 °F 38.1 °F 29.77 in Calm   2.0 mph 31% 0.00 in 0.00 W/m2
02:13 70.0 °F 37.0 °F 29.78 in Calm   3.0 mph 30% 0.00 in 0.00 W/m2
02:19 70.0 °F 37.0 °F 29.78 in Calm   3.0 mph 30% 0.00 in 0.00 W/m2
02:23 70.0 °F 37.0 °F 29.77 in Calm   2.0 mph 30% 0.00 in 0.00 W/m2
02:28 70.0 °F 37.0 °F 29.77 in Calm   2.0 mph 30% 0.00 in 0.00 W/m2
02:34 70.0 °F 37.0 °F 29.77 in Calm     30% 0.00 in 0.00 W/m2
02:39 70.0 °F 37.0 °F 29.77 in Calm     30% 0.00 in 0.00 W/m2
02:44 69.8 °F 37.0 °F 29.76 in Calm     30% 0.00 in 0.00 W/m2
02:49 69.8 °F 37.8 °F 29.76 in Calm     31% 0.00 in 0.00 W/m2
Olympia, Windhoek, Namibia
Compliments of Weather Underground - 2 mb